Regional Weather Roundup
Issued by NWS

Home | Current Version | Previous Version | Text Only | Print | Product List | Glossary On
Versions: 1 2 3 4 5 6 7 8 9 10 11 12 13 14 15 16 17 18 19 20 21 22 23 24 25 26 27 28 29 30 31 32 33 34 35 36 37 38 39 40 41 42 43 44 45 46 47 48 49 50
000
ASUS43 KDMX 202306
RWRIA

WEATHER ROUNDUP FOR IOWA
NATIONAL WEATHER SERVICE DES MOINES IA
600 PM CDT FRI APR 20 2018

NOTE: "FAIR" INDICATES FEW OR NO CLOUDS BELOW 12,000 FEET WITH NO
SIGNIFICANT WEATHER AND/OR OBSTRUCTIONS TO VISIBILITY.

* - THESE STATIONS ARE NOT NWS STATIONS...THUS NOT UNDER NWS
QUALITY CONTROL.  THEY ALSO DO NOT REPORT WEATHER SUCH
AS PRECIPITATION OR FOG.

IAZ001>003-012>014-020>022-031>034-043>046-210000-
   NORTHWEST IOWA

CITY           SKY/WX    TMP DP  RH WIND       PRES   REMARKS
CARROLL *      CLOUDY    57  30  35 E12       30.34R
CHEROKEE *     CLOUDY    42  36  78 E9        30.38R
DENISON *      PTSUNNY   57  27  30 E9        30.33S
LE MARS *      CLOUDY    52  37  58 E14       30.36R
ORANGE CITY *  CLOUDY    46  39  76 E9        30.37R
SHELDON *      CLOUDY    45  39  81 E12       30.37R
SIOUX CITY     CLOUDY    58  30  34 SE7       30.33R
SPENCER        CLOUDY    39  32  76 E10       30.40R WCI  32
STORM LAKE *   CLOUDY    41  37  87 NE13      30.36R
$$

IAZ055>058-069>071-079>083-090>094-210000-
   SOUTHWEST IOWA

CITY           SKY/WX    TMP DP  RH WIND       PRES   REMARKS
ATLANTIC *     CLOUDY    59  27  29 SE9       30.30S
AUDUBON *      CLOUDY    57  25  28 SE9       30.33S
CLARINDA *     CLOUDY    61  25  25 SE9G16    30.30F
COUNCIL BLFS * PTSUNNY   59  28  31 SE13      30.30R
CRESTON *      CLOUDY    59  25  27 SE12      30.32S
HARLAN  *      PTSUNNY   59  27  29 E13       30.33F
LAMONI         MOSUNNY   59  26  28 SE9       30.30S
RED OAK *      CLOUDY    59  28  31 E10       30.29S
SHENANDOAH *   CLOUDY    61  27  27 SE14      30.28S
$$

IAZ047>049-059>061-072>074-084-210000-
   CENTRAL IOWA

CITY           SKY/WX    TMP DP  RH WIND       PRES   REMARKS
AMES           CLOUDY    56  29  35 SE12      30.35S
ANKENY *       MOSUNNY   57  27  30 E8G16     30.35S
BOONE *        CLOUDY    55  28  35 SE9       30.34S
CHARITON *     CLOUDY    57  27  30 E12       30.32F
DES MOINES     CLOUDY    59  26  28 E8        30.34S
GRINNELL*      CLOUDY    58  23  26 SE10      30.37S
KNOXVILLE *    CLOUDY    59  23  25 SE12      30.32F
MARSHALLTOWN   CLOUDY    56  29  35 E10       30.35F
NEWTON *       CLOUDY    57  23  26 SE9       30.35S
PELLA *        CLOUDY    59  22  24 SE8       30.35F
PERRY *        FAIR      55  22  27 E9        30.35R
$$

IAZ004>006-015-016-023>025-035-036-210000-
   NORTH CENTRAL IOWA

CITY           SKY/WX    TMP DP  RH WIND       PRES   REMARKS
ALGONA *       CLOUDY    41  30  65 E8        30.40S
CLARION *      CLOUDY    46  37  71 E13       30.37F
ESTHERVILLE    CLOUDY    35  30  82 NE7       30.40S WCI  29
FORT DODGE *   CLOUDY    52  42  69 NE7       30.37S
MASON CITY     CLOUDY    39  31  72 NE10      30.41F WCI  32
FOREST CITY *  FAIR      41  30  65 NE6       30.41S
WEBSTER CITY * CLOUDY    55  30  38 SE9       30.34F
IOWA FALLS *   FAIR      56  32  40 SE6       30.38S
$$

IAZ007>011-017>019-026>030-037>042-050>054-066-210000-
   NORTHEAST IOWA

CITY           SKY/WX    TMP DP  RH WIND       PRES   REMARKS
CEDAR RAPIDS   FAIR      58  19  22 S8        30.36F
CHARLES CITY * FAIR      46  32  57 NE10      30.41S
CLINTON *      FAIR      59  17  19 S6        30.39F
DECORAH *      FAIR      48  28  46 CALM      30.40F
DUBUQUE        FAIR      56  21  25 S5        30.39F
MONTICELLO *   FAIR      59  23  25 SE6       30.38F
OELWEIN *      FAIR      55  30  38 SE6       30.38F
WATERLOO       FAIR      56  28  34 S5        30.37F
$$

IAZ064-065-067-068-078-210000-
   EAST CENTRAL IOWA

CITY           SKY/WX    TMP DP  RH WIND       PRES   REMARKS
DAVENPORT      FAIR      59  12  15 S8        30.40F
IOWA CITY      FAIR      59  19  21 SE9       30.39S
MT. PLEASANT * CLOUDY    59  18  20 E9        30.37F
MUSCATINE *    FAIR      61  14  16 SE9G15    30.38S
QUAD CITIES    FAIR      61  17  18 SE8       30.37F
$$

IAZ062-063-075>077-085>089-095>099-210000-
   SOUTHEAST IOWA

CITY           SKY/WX    TMP DP  RH WIND       PRES   REMARKS
BURLINGTON     MOSUNNY   59  19  21 SE9       30.36F
FAIRFIELD *    CLOUDY    59  16  18 SE12      30.35F
FORT MADISON * CLOUDY    61  25  25 E10       30.36F
KEOKUK *       MOSUNNY   61  19  20 SE12      30.35F
OSKALOOSA *    FAIR      60  20  21 SE12      30.35S
CENTERVILLE *    N/A     57  23  26 SE12G17   30.34S
OTTUMWA        PTSUNNY   59  21  23 SE12      30.34F
WASHINGTON *   CLOUDY    59  16  18 SE10      30.38S
$$

ABBREVIATIONS USED IN REMARKS
   TC - TEMPERATURES IN CELSIUS
  WCI - WIND CHILL INDEX
   HX - HEAT INDEX
  VSB - VISIBILITY
$$




USA.gov is the U.S. government's official web portal to all federal, state and local government web resources and services.